Showing default

COSMOS 82, 1572

Orbit data source: Space-Track

COSMOS 82, 1572 is a payload satellite owned by OKB-10 (CIS) in LEO that was launched on Fri, 03 Sep 1965 UTC via a KOSMOS 65S3 launch vehicle from the Tyuratam Missile And Space Complex (TTMTR). Payload-class satellites include a variety of spacecraft equipped with specific instruments for various scientific and technological missions. These include communications satellites like Starlink; space stations such as the ISS; scientific satellites like the Hubble; Earth observation satellites from companies like Planet Labs, Umbra, and HawkEye 360; GPS; miniature CubeSats for education and research; and military/defense satellites.

Loading next visibility...
Identifier
1572, 1965-070C
Orbit
LEO
Last TLE update
12 hours ago
Origin
Manufacturer
OKB-10
Mission
Defense Communications
Bus & Motor
STRELA-1 11F610, Unknown motor
Mass
50 kg wet, 50 kg dry
Launch date (UTC)
1965-09-03 (60 years ago)
Launch vehicle
KOSMOS 65S3
Launch site
Tyuratam Missile And Space Complex (TTMTR)
Object type
Payload
Rocket body
Debris
Shape & HBR
Poly, 0.8 m
Radar Cross Section
0.731 m², Medium (>0.1 m² and < 1m²)

Expand to show TLE details & history

TLE from 12 hours ago
0 COSMOS 82
1 01572U 65070C   25128.72241854 -.00000096  00000-0 -13550-4 0  9999
2 01572  56.0590 259.1933 0076594  79.8982  36.5651 12.45117042713822
Epoch: 2025-05-08T17:20Z
Definitive object data (Epoch: 2025-05-08T17:20:16.961Z)
Latitude
47.79225°
Longitude
-95.2588°
Altitude
1,442.472 km
Speed
7.168 km/s
True Right ascension
02h 06m 24s
True Declination
47° 38' 10"
Sunlit
Object was in daylight at TLE epoch
Visualization TLE readout
Latitude
48.41569°
Longitude
-97.95376°
Altitude
1,441.532 km
Speed
7.168 km/s
Apparent Right ascension
01h 29m 42s
Apparent Declination
9° 55' 37"
Sunlit
Object is in daylight
Visualization observer readout
Local Sidereal Time
13:02:12
Azimuth
351.178° N
Elevation
-39.751°
Doppler factor
1
Orbital elements
Apogee altitude
1,545.035 km
Perigee altitude
1,424.584 km
Semi-major axis
7,862.946 km
Eccentricity
0.0076594
Inclination
56.059°
RAAN
259.1933°
Arg. of periapsis
79.8982°
True anomaly
37.09202°
Mean anomaly
36.5651°
Eccentric anomaly
36.82815°
Mean motion
3.1129 °/min
BSTAR
-0.00001355
Orbital period
115.65 mins
Loading maneuver chart data...
Loading SW <> Apogee altitude chart data...
Loading historical data...
Loading historical data...
Loading historical data...
Loading historical data...
Loading historical data...
Loading historical data...
Loading historical data...
Other satellites on launch #70 in the year 1965 (1965-09-03 UTC)

COSMOS 82 Visibility forecast

Observer location: undefined°, undefined°

Span
Click to sort rows by Start time (UTC) header in descending order
Start Az.
Max El. time (UTC)
Max El. Az.
Max El.
End time (UTC)
End Az.
16 mins2025-05-09 10:09:37.881Z195.72° SSW2025-05-09 10:17:37.881Z123.36° SE37.404°2025-05-09 10:25:37.881Z53.893° ENE
15 mins2025-05-09 12:11:37.881Z253.657° W2025-05-09 12:18:37.881Z330.963° NNW38.688°2025-05-09 12:26:37.881Z41.332° NE
12 mins2025-05-09 14:15:37.881Z302.854° NW2025-05-09 14:21:37.881Z356.31° N25.199°2025-05-09 14:27:37.881Z44.923° NE
13 mins2025-05-09 16:18:37.881Z324.07° NNW2025-05-09 16:24:37.881Z18.875° NNE29.164°2025-05-09 16:31:37.881Z79.612° E
16 mins2025-05-09 18:19:37.881Z316.34° NNW2025-05-09 18:26:37.881Z29.085° NE44.708°2025-05-09 18:35:37.881Z132.333° SE
12 mins2025-05-09 20:21:37.881Z286.453° WNW2025-05-09 20:26:37.881Z244.083° WSW24.387°2025-05-09 20:33:37.881Z190.142° SSW
|